AQI (52)

Current Conditions for Foresthill, CA. Sunny, Dry   
Visibility: 10 miles
Foresthill Advisory text: No Warning

  Summary / Temperature 

Current Temperature
71.4°F
21.9°C
(24/hr Ago)
67.5°F
(Apparent temp)
71.6°F
Comfortable
Heat Index
72.3°F 

74.8°F/ 23.8°C
 --- Virtual Temp: 74.3°F ---

 Temp Rate:

 24/hr Difference:

 Avg Running Temp:

 Todays High:

 Todays Low:

 Y-days High:

 Y-days Low:

 Todays WChill:

 Y-days WChill:

 Evapotranspiration:

+2.5°F/hr 

+3.9°F

67.9°F

71.4°F 9:55am

63.6°F 5:27am

81.4°F 3:25pm

59.3°F 7:13am

61.9°F 6:17am

57.7°F 5:18am

0.022 in

115' Above Ground

 Temperature:

 6'AGL VRS 115'AGL:

 Avg Running Temp:

 Humidity:

 Todays High:

 Todays Low:

 Y-days High:

 Y-days Low:

79.0°F 

+7.6°F

74.2°F

36% 

79.0°F 9:45am

65.0°F 5:05am

82.0°F 4:12pm

61.0°F 3:06am

Temp & Humidity Graphs

  Wind 

Wind Speed

 1.0 mph

Gusting to

 4.0 mph

Wind from ESE

109°  ESE

Light air

 Avg speed:

 Wind Run:

 Peak Gust:

  1.0 mph 

20.0 miles

  18.0 mph 6:39am

  Almanac  

Moon age: 1 days,12 hours,36 minutes,3%

Waxing Crescent
4%
Illuminated
1 day in cycle

 Moonrise:

 Moonset:

 Sunrise:

 Sunset:

 Solar Noon:

8:26am

8:37pm

6:29am

7:42pm

1:04pm

2min 23s less daylight tomorrow 

  Solar Radiation 

(Current Solar)
  596 W/m2 (87%)
(Todays High)
 594 W/m2@9:54am
Feels like: 83.5°F in the sun

Rain

 Rain Today:

 Rain Rate (/hr):

 Rain last hour:

 Rain Yesterday:

 This Month:

 Season Total:

15 Days Since Last Rain Day

0.00 in

0.000 in

0.00 in

0.00 in

0.06 in

0.07 in

Updated Time

Updated: 8/27/14  9:55am

(Updated  sec ago)

Humidity & Barometer

 Humidity:

 Wetbulb:

 Dew Point:

 Barometer:

51% 

60.6°F 

52.3°F 

30.062 inHg 

 Baro Trend:  Steady 
Northern Calif
Preparedness
Fire 
Level 

    UV Index  

(Current UV)
4.0  Medium
(Todays High) @ 9:53am
4.0   Medium

Weather Underground 5 day Forecast

Wed Thu Fri Sat Sun
Clear Clear Partly Cloudy Clear Clear
Clear Clear Partly Cloudy Clear Clear
86 88 88 81 81
72 72 72 64 66

Foresthill Probe 2 Stats  
Foresthill Probe 2: is located on Thomas Street
at 3000 feet. The main Foresthill Weather site
is located on Melody ln at the 2860 foot elevation

Calm
74.7°F
23.7°C
Temp Rate:
+4.0°F
Calm
Gusting to
3.0 mph
(Humidity)
41%
Wind from ESE
123°  ESE
Updated: 27/08/14 - 09:54:37
 Todays High: 74.8°F 09:54
 Todays Low: 60.6°F 05:50
 Rain Today: 0.00 in
 Season Total: 0.08 in

Foresthill Wx: Monthly,Yearly, Highs and Lows 

Foresthill  
This Weather Data is coming from the main Foresthill
Weather site located on Melody ln at the 2860 foot
elevation
Not Foresthill Probe 2
Weather Data
Month
  High
Month
  Low
Year
High
Year
Low
Temp 96.3F
8/1/14
59.3F
8/26/14
96.4F
7/14/14
32.0F
2/4/14
Humidity 88%
8/4/14
11%
8/1/14
100%
3/1/14
11%
5/16/14
Heat Index 91.7F
8/1/14
61.5F
8/26/14
95.0F
7/14/14
35.5F
2/5/14
Wind Chill 96.3F
8/1/14
57.7F
8/26/14
96.4F
7/14/14
21.6F
2/5/14
Wind Gust 24 mph
8/22/14
0 mph
8/1/14
40 mph
3/12/14
0 mph
1/1/14
Barometer 30.06 in
8/5/14
29.73 in
8/19/14
30.55 in
1/14/14
29.47 in
2/28/14
ET 0.27 in
8/2/14
0.00 in
8/1/14
0.27 in
7/4/14
0.00 in
1/1/14
Dew Point 64.6F
8/4/14
32.6F
8/1/14
64.6F
8/4/14
5.1F
1/4/14
Infrared Satellite Regional Radar Satellite Imagery Sacramento,CA.  (click to enlarge)
NWS Weather Forecast - Outlook: Today and Tonight
Today

Sunny
Sunny

Hi 89 °F
NWS forecast: Sunny, with a high near 89. East northeast wind 6 to 9 mph becoming west southwest in the morning.
Tonight

Clear
Clear

Lo 67 °F
NWS forecast: Clear, with a low around 67. West southwest wind 5 to 8 mph becoming calm.
NWS Weather Forecast - Summary
Updated: Wednesday, August 27, 2014 - 3:30am (PDT)
YR.NO 10 Day Weather forecast
Last update: 08/27/2014 @ 00:04
Next update: 08/27/2014 @ 13:00
Provided by: 22
      Temperature Precipitation Pressure Wind  
Today
08/27/2014
08:00 11:00 63°F   30.06 inHg Light breeze from east-northeast 4 mph
  11:00 17:00 79°F   30.06 inHg Light breeze from west-southwest 5 mph
  17:00 23:00 84°F   30.00 inHg Light breeze from west-southwest 6 mph
  23:00 05:00 70°F   30.06 inHg Light air from east 2 mph
    (Click to enlarge)
meteogram

    Forecast for next 9 days

      Temperature Precip Pressure Wind  
Thursday
08/28/2014
05:00 11:00 57°F   30.05 inHg Light air from east-northeast 3 mph
  11:00 17:00 84°F   30.02 inHg Light breeze from west 4 mph
  17:00 23:00 86°F   29.94 inHg Light breeze from west-southwest 6 mph
  23:00 05:00 70°F   29.97 inHg Light air from east 2 mph
      Temperature Precip Pressure Wind  
Friday
08/29/2014
05:00 11:00 57°F   29.91 inHg Light breeze from east-northeast 4 mph
  11:00 17:00 84°F   29.90 inHg Light breeze from southwest 5 mph
  17:00 23:00 82°F   29.85 inHg Light breeze from southwest 7 mph
  23:00 05:00 64°F   29.87 inHg Light breeze from east 5 mph
      Temperature Precip Pressure Wind  
Saturday
08/30/2014
05:00 11:00 59°F   29.84 inHg Light breeze from east 5 mph
  11:00 17:00 79°F   29.87 inHg Light breeze from southwest 7 mph
  17:00 23:00 81°F   29.81 inHg Gentle breeze from west-southwest 8 mph
  23:00 05:00 64°F   29.83 inHg Light breeze from east-southeast 4 mph
      Temperature Precip Pressure Wind  
Sunday
08/31/2014
05:00 11:00 54°F   29.82 inHg Light breeze from east-northeast 4 mph
  11:00 17:00 79°F   29.82 inHg Light breeze from west 5 mph
  17:00 23:00 81°F   29.78 inHg Light breeze from west 6 mph
  23:00 05:00 66°F   29.80 inHg Light air from east-northeast 2 mph
      Temperature Precip Pressure Wind  
Monday
09/01/2014
05:00 11:00 55°F   29.77 inHg Light breeze from east-northeast 5 mph
  11:00 17:00 82°F   29.77 inHg Light breeze from west-southwest 5 mph
  17:00 23:00 86°F   29.73 inHg Light breeze from west 5 mph
  23:00 05:00 68°F   29.80 inHg Light air from east 3 mph
      Temperature Precip Pressure Wind  
Tuesday
09/02/2014
05:00 11:00 57°F   29.80 inHg Light breeze from east-northeast 5 mph
  11:00 17:00 86°F   29.81 inHg Light breeze from west-southwest 5 mph
  17:00 23:00 88°F   29.78 inHg Light breeze from west-southwest 6 mph
  23:00 05:00 72°F   29.84 inHg Light air from east-northeast 2 mph
      Temperature Precip Pressure Wind  
Wednesday
09/03/2014
05:00 11:00 57°F   29.81 inHg Light air from east-northeast 3 mph
  11:00 17:00 88°F   29.79 inHg Light breeze from west-southwest 5 mph
  17:00 23:00 90°F   29.73 inHg Light breeze from west-southwest 7 mph
  23:00 05:00 68°F   29.75 inHg Light air from east-northeast 3 mph
      Temperature Precip Pressure Wind  
Thursday
09/04/2014
05:00 11:00 57°F   29.71 inHg Light breeze from east-northeast 4 mph
  11:00 17:00 86°F   29.70 inHg Light breeze from west 5 mph
  17:00 23:00 88°F   29.65 inHg Light breeze from west 7 mph
  23:00 05:00 68°F   29.69 inHg Light air from east-northeast 3 mph
      Temperature Precip Pressure Wind  
Friday
09/05/2014
05:00 11:00 64°F   29.70 inHg Gentle breeze from east-northeast 8 mph
  11:00 17:00 86°F   29.72 inHg Gentle breeze from east-northeast 8 mph

Weather History For Wednesday, August 27, 2014


On this Day - In Weather History ...
Data courtesy of weatherforyou.com
powered by Cumulus v1.9.3 (1059)
Ambient Weather VWS v14.00
Top Contact Website Map Copyright © 2007 - 2014 Foresthillweather.com Never base important decisions on this or any weather information obtained from the Internet